Wind_Speed
15 14 13 13 13 13 12 12 11 11 10 10 10 10 10 10 9 9 9 9 9 9 9 9 9 9 9 9 9 9 9 10 9 9 9 9 9 8 9 9 9 10
15 14 14 14 14 14 13 13 12 11 11 11 10 10 10 9 9 10 9 9 10 10 9 9 9 9 10 10 9 10 10 10 10 9 9 9 9 9 9 9 10 10
15 14 14 15 15 15 14 14 13 12 11 11 11 10 10 10 10 10 10 10 11 10 10 9 9 9 10 10 10 10 10 10 11 11 10 10 10 10 10 10 11 11
15 15 15 15 15 15 15 14 13 12 12 12 12 11 11 11 10 10 10 11 11 11 10 10 11 10 11 10 10 10 10 10 11 12 11 11 11 12 11 11 12 12
15 15 15 15 15 15 15 14 13 13 13 13 13 13 13 12 11 11 11 11 11 11 11 11 11 11 11 10 10 10 10 10 11 11 11 11 11 11 11 11 11 11
15 15 15 15 15 14 14 13 13 13 13 14 13 13 13 12 12 12 12 11 12 12 12 11 11 10 10 9 9 9 9 10 9 9 10 11 11 10 10 11 11 11
15 15 15 15 15 15 14 14 14 14 14 14 14 13 13 13 13 13 12 12 12 12 12 11 10 10 10 9 8 9 9 10 10 9 9 10 10 10 10 10 10 10
15 15 15 15 15 15 14 14 14 14 14 15 14 14 13 13 13 13 13 13 12 13 12 11 11 10 10 10 9 9 9 9 10 9 9 10 10 10 10 10 10 10
16 16 16 15 15 15 14 14 14 15 15 15 15 15 15 15 14 14 14 13 13 13 13 12 12 11 11 11 10 10 10 10 10 10 9 9 10 10 9 10 10 10
17 17 16 16 16 15 15 14 14 15 16 15 15 15 15 15 15 15 15 14 14 14 13 13 13 12 12 12 11 11 10 10 11 10 10 10 10 9 9 9 10 10
19 18 17 17 16 16 15 15 15 15 15 16 16 15 15 15 16 17 16 15 14 14 14 13 13 13 13 12 12 11 11 11 12 11 11 12 11 11 11 10 10 10
20 19 18 18 17 17 17 17 17 16 15 16 16 16 16 16 17 17 17 16 15 15 14 14 13 14 14 14 12 13 13 13 12 13 13 13 12 12 12 11 10 11
20 20 19 19 19 19 18 18 18 17 16 17 17 17 16 16 18 18 17 16 15 15 15 15 14 14 15 15 13 13 14 14 13 13 14 14 13 12 13 12 12 12
20 20 21 21 21 20 20 19 19 19 19 19 19 18 16 16 17 19 18 17 16 16 16 16 16 16 16 15 14 14 15 15 14 14 14 15 14 13 13 13 14 14
19 21 22 23 24 23 22 22 21 21 21 22 21 20 18 17 18 18 19 19 16 15 16 17 18 18 15 14 14 15 15 14 15 15 14 15 16 15 15 15 16 16
20 21 23 24 25 24 24 24 23 23 23 23 23 22 20 20 20 19 19 20 18 17 17 18 19 18 15 16 16 16 15 15 15 16 16 17 17 17 18 18 18 19
21 21 23 24 23 23 24 24 23 23 24 24 24 24 23 22 22 21 20 20 20 21 20 20 20 18 16 17 18 17 17 17 17 18 18 20 19 19 20 21 19 20
23 24 24 23 23 23 25 25 24 24 25 25 25 24 23 23 24 23 23 23 23 24 23 21 21 20 18 18 18 19 19 19 20 20 20 21 21 21 23 22 21 21
27 26 26 26 26 26 26 26 26 26 26 26 26 25 25 25 25 25 25 24 25 26 26 24 22 21 20 20 20 21 21 21 22 22 22 23 23 23 24 24 24 23
29 29 29 29 28 28 29 29 28 27 27 27 26 26 27 27 25 25 26 25 25 28 30 28 26 23 22 22 22 22 22 23 24 24 24 25 25 25 25 25 26 27
29 31 32 31 31 31 31 31 30 29 29 29 29 28 28 28 26 26 26 25 26 29 30 29 26 24 23 23 23 23 23 24 25 25 25 26 26 27 27 28 28 29
32 34 35 35 35 34 34 33 33 33 32 31 30 29 28 28 27 27 28 27 27 28 29 28 26 23 22 23 23 23 24 25 26 26 26 26 27 27 28 28 29 31
37 38 38 38 37 36 36 35 36 36 36 35 32 29 28 29 29 28 28 27 26 27 28 27 25 24 23 24 24 24 24 25 26 26 27 27 27 27 27 28 29 31
40 40 40 39 38 37 37 38 38 38 39 39 37 33 30 30 30 29 28 26 25 25 26 25 25 25 25 24 23 24 24 25 25 26 26 27 27 27 27 28 30 31
37 38 37 37 37 37 36 37 37 37 37 38 39 38 35 32 32 30 28 27 25 23 23 25 25 25 25 24 23 23 24 24 25 26 27 28 28 27 27 29 32 33
32 33 33 33 33 33 34 34 34 34 33 34 38 39 36 33 33 32 29 27 25 23 22 23 24 24 24 24 23 23 24 26 27 28 28 28 27 28 30 32 32 31
Wind_Direction
205 205 206 206 207 209 210 214 216 217 218 218 221 224 226 229 230 233 236 235 237 239 239 241 241 244 248 249 250 250 249 252 254 252 251 253 253 251 253 257 259 261
207 205 206 207 211 214 214 218 222 222 223 223 225 229 231 233 235 239 243 244 244 245 245 246 246 248 251 251 252 253 253 255 259 260 259 259 259 256 257 260 262 265
206 204 205 207 212 215 216 220 225 226 225 226 231 235 235 239 241 242 245 246 248 250 250 253 254 254 257 258 258 258 260 260 262 264 263 264 265 263 263 264 266 268
205 204 205 208 211 214 217 220 224 226 226 227 231 235 237 240 243 243 245 247 250 254 256 259 261 261 261 263 264 265 267 266 265 266 266 265 266 266 266 266 267 270
206 207 210 213 215 216 217 219 223 225 227 230 233 235 237 239 241 242 244 248 252 256 258 259 261 263 264 262 262 264 268 267 264 265 267 265 265 265 267 267 267 270
212 215 218 221 223 224 223 222 225 227 229 233 236 238 238 237 240 242 244 249 253 254 255 256 258 262 264 261 259 260 263 268 267 265 266 267 267 267 267 269 271 272
216 219 222 224 226 227 227 226 227 229 232 235 238 240 241 240 240 244 246 248 253 255 256 257 257 259 261 260 259 260 263 270 273 270 267 269 272 272 272 273 275 277
215 218 220 222 224 225 227 227 229 231 233 237 241 241 242 243 244 246 248 249 253 256 256 257 255 252 255 257 256 260 264 269 273 275 274 275 277 278 280 281 282 283
214 217 219 220 221 224 226 227 230 232 234 237 242 244 244 244 245 247 249 250 253 254 253 255 253 249 250 254 255 260 263 265 268 271 269 268 272 276 278 280 281 282
216 218 220 220 221 223 226 228 231 234 236 235 238 245 248 245 242 244 247 250 252 254 254 253 254 254 254 255 256 257 261 265 267 267 266 265 267 270 271 272 276 279
219 220 221 222 222 223 224 227 232 236 238 238 237 240 243 245 243 242 243 245 248 251 254 255 256 257 259 259 259 258 255 255 256 257 258 257 254 255 256 257 261 268
224 225 225 225 225 226 226 227 232 235 236 241 243 241 241 246 249 248 245 244 246 250 252 255 256 258 260 259 258 260 259 255 255 257 261 264 264 264 265 266 266 267
227 229 229 230 228 229 228 229 233 236 235 240 246 247 246 249 256 259 255 249 248 251 253 255 255 255 257 257 255 260 266 268 271 276 282 286 285 282 281 283 284 280
227 229 230 231 231 231 230 230 232 236 239 242 247 251 250 249 255 261 261 256 250 249 252 257 258 255 256 259 260 263 268 273 276 282 289 290 286 285 286 283 280 279
225 228 230 230 230 230 228 227 228 231 237 242 246 250 249 248 249 253 259 262 258 254 257 259 259 258 260 263 264 265 269 273 277 281 287 287 286 289 289 285 282 280
224 228 231 232 233 233 231 229 228 228 233 238 241 244 246 248 248 247 254 261 263 263 262 260 259 261 266 268 269 271 273 275 277 280 283 284 286 288 286 283 283 284
225 229 233 236 238 241 241 239 235 233 235 239 241 242 243 246 249 248 249 254 257 256 252 250 254 258 262 268 272 274 276 277 279 282 285 286 288 288 286 286 285 287
230 232 235 238 239 241 244 245 242 239 239 242 244 244 243 244 246 247 247 247 251 255 252 249 252 255 258 265 271 273 276 280 281 283 284 285 286 287 288 291 290 288
234 235 236 238 240 241 244 247 246 244 243 243 244 245 244 244 245 246 247 247 250 254 254 253 256 259 261 265 268 271 275 279 279 280 281 282 284 286 287 288 289 289
236 239 240 241 242 243 244 247 248 246 245 244 242 242 242 242 244 246 249 250 251 254 255 257 259 260 261 265 269 272 275 276 277 278 279 281 283 284 284 284 286 288
242 244 246 246 247 247 247 249 248 247 247 246 242 240 241 241 243 245 246 247 248 252 256 259 259 259 261 267 270 272 273 274 277 278 279 281 282 282 282 285 287 288
249 247 248 248 248 249 250 251 250 249 249 246 242 241 241 241 241 243 245 246 248 251 256 258 260 260 262 264 266 269 271 274 277 278 279 280 281 281 283 286 288 288
250 249 248 248 248 249 251 252 253 253 253 251 249 247 243 239 238 241 245 248 251 255 258 259 259 258 259 260 263 266 270 272 274 277 278 279 281 282 284 285 286 286
251 251 250 250 251 252 252 254 255 254 254 255 254 252 247 242 240 241 245 249 252 257 260 261 260 258 259 261 263 265 267 269 271 274 277 279 280 281 282 284 285 286
255 255 254 255 256 255 254 255 256 255 254 254 254 252 249 246 244 241 241 245 250 258 264 264 262 260 261 262 264 266 268 269 271 274 276 278 279 280 282 286 288 288
258 259 259 257 256 256 255 256 258 259 257 254 252 251 249 248 249 248 246 247 251 257 261 261 259 259 261 263 265 267 268 269 272 274 275 276 277 281 286 290 291 291
Height
3221 3222 3223 3224 3225 3226 3227 3228 3229 3230 3230 3231 3232 3233 3233 3234 3234 3234 3235 3235 3235 3236 3236 3236 3237 3237 3237 3237 3237 3237 3238 3238 3238 3238 3238 3238 3238 3238 3238 3238 3238 3238
3220 3222 3223 3224 3225 3226 3227 3228 3229 3229 3230 3231 3231 3232 3233 3233 3234 3234 3234 3235 3235 3235 3236 3236 3236 3236 3236 3237 3237 3237 3237 3237 3237 3237 3237 3237 3237 3237 3237 3237 3237 3237
3220 3221 3222 3223 3224 3225 3226 3227 3228 3229 3230 3230 3231 3232 3232 3233 3233 3234 3234 3234 3234 3235 3235 3235 3235 3235 3236 3236 3236 3236 3236 3236 3236 3236 3236 3236 3236 3236 3236 3236 3236 3236
3219 3220 3221 3222 3223 3224 3225 3226 3227 3228 3229 3230 3230 3231 3232 3232 3232 3233 3233 3233 3234 3234 3234 3234 3234 3235 3235 3235 3235 3235 3235 3235 3235 3235 3235 3235 3235 3236 3236 3235 3235 3235
3218 3219 3220 3221 3222 3223 3224 3225 3226 3227 3228 3229 3229 3230 3231 3231 3231 3232 3232 3232 3233 3233 3233 3233 3233 3234 3234 3234 3234 3234 3234 3234 3234 3234 3234 3234 3234 3234 3234 3234 3234 3234
3217 3218 3219 3220 3221 3223 3224 3225 3225 3226 3227 3228 3228 3229 3229 3230 3230 3231 3231 3231 3232 3232 3232 3232 3232 3233 3233 3233 3233 3233 3233 3233 3233 3233 3233 3233 3233 3233 3233 3233 3233 3233
3216 3217 3218 3219 3220 3222 3223 3224 3224 3225 3226 3227 3227 3228 3228 3229 3229 3230 3230 3230 3230 3230 3230 3230 3231 3231 3232 3232 3232 3232 3232 3232 3232 3232 3232 3232 3232 3233 3232 3232 3232 3232
3215 3216 3217 3218 3219 3220 3222 3222 3223 3224 3225 3226 3226 3227 3227 3227 3228 3228 3229 3229 3229 3229 3229 3229 3230 3230 3230 3231 3231 3231 3231 3232 3231 3232 3232 3231 3231 3232 3232 3231 3231 3231
3214 3215 3216 3217 3218 3219 3220 3221 3222 3223 3224 3225 3225 3225 3225 3226 3226 3227 3227 3228 3228 3228 3228 3228 3228 3229 3229 3229 3230 3230 3230 3230 3230 3230 3230 3230 3230 3230 3230 3230 3230 3230
3212 3213 3215 3216 3217 3218 3219 3220 3221 3221 3222 3223 3224 3224 3224 3224 3225 3225 3225 3226 3226 3227 3227 3227 3227 3228 3228 3228 3228 3228 3229 3229 3229 3229 3229 3229 3229 3229 3229 3229 3229 3229
3210 3212 3213 3214 3215 3217 3218 3219 3219 3220 3220 3221 3222 3222 3222 3223 3223 3223 3223 3224 3225 3225 3226 3226 3227 3227 3227 3227 3227 3227 3227 3227 3226 3227 3227 3227 3227 3227 3226 3226 3227 3228
3209 3210 3211 3213 3214 3215 3216 3217 3218 3219 3220 3220 3220 3220 3221 3221 3221 3221 3222 3223 3223 3224 3224 3225 3225 3225 3226 3226 3226 3226 3225 3225 3225 3225 3225 3226 3226 3226 3225 3225 3226 3227
3207 3208 3210 3211 3212 3213 3215 3216 3217 3217 3218 3219 3219 3219 3220 3220 3220 3220 3220 3221 3222 3223 3223 3223 3224 3224 3224 3224 3225 3225 3224 3224 3225 3225 3226 3226 3226 3226 3225 3226 3227 3227
3205 3206 3207 3208 3210 3211 3212 3214 3215 3216 3216 3216 3217 3217 3218 3219 3219 3219 3218 3219 3221 3221 3221 3222 3222 3222 3222 3223 3224 3224 3224 3224 3224 3224 3225 3225 3225 3224 3224 3224 3224 3224
3202 3203 3204 3205 3206 3208 3209 3211 3212 3213 3214 3214 3214 3215 3216 3217 3218 3218 3217 3218 3219 3220 3221 3221 3220 3219 3220 3222 3223 3223 3222 3222 3223 3223 3223 3223 3223 3222 3222 3223 3222 3222
3199 3200 3201 3201 3203 3205 3207 3208 3209 3210 3211 3211 3212 3213 3214 3214 3215 3216 3216 3217 3217 3218 3219 3218 3218 3218 3219 3220 3220 3221 3221 3221 3221 3221 3221 3221 3221 3221 3220 3220 3220 3220
3196 3197 3198 3199 3201 3203 3204 3206 3207 3208 3208 3209 3209 3210 3211 3212 3213 3214 3215 3216 3215 3214 3214 3214 3215 3216 3217 3217 3218 3219 3219 3219 3219 3219 3219 3219 3219 3219 3218 3218 3218 3218
3193 3195 3196 3197 3199 3200 3201 3202 3204 3205 3206 3207 3208 3209 3209 3209 3210 3211 3212 3213 3212 3211 3212 3214 3215 3215 3215 3215 3216 3216 3217 3217 3217 3217 3217 3217 3217 3217 3216 3216 3216 3215
3189 3191 3193 3194 3195 3197 3198 3199 3200 3202 3203 3204 3205 3206 3206 3207 3208 3208 3209 3210 3210 3209 3210 3212 3213 3213 3213 3213 3214 3214 3214 3215 3215 3215 3215 3215 3215 3215 3214 3213 3213 3212
3185 3188 3190 3191 3192 3194 3195 3196 3197 3198 3199 3200 3201 3202 3202 3203 3204 3205 3206 3208 3208 3207 3208 3209 3210 3211 3211 3211 3212 3212 3212 3213 3213 3213 3213 3213 3213 3213 3212 3211 3210 3210
3183 3186 3187 3188 3190 3190 3191 3193 3194 3195 3196 3197 3198 3198 3198 3199 3200 3201 3202 3204 3204 3204 3204 3206 3207 3208 3208 3209 3209 3209 3210 3210 3210 3210 3210 3210 3210 3210 3209 3208 3208 3207
3181 3182 3183 3184 3186 3187 3188 3190 3191 3192 3192 3193 3194 3194 3195 3196 3197 3197 3198 3200 3200 3200 3200 3202 3204 3205 3205 3206 3206 3207 3207 3207 3207 3207 3207 3207 3207 3206 3206 3205 3204 3203
3176 3177 3178 3180 3182 3184 3185 3186 3187 3189 3190 3191 3191 3191 3192 3193 3194 3194 3196 3197 3198 3199 3198 3199 3201 3202 3202 3202 3203 3204 3204 3204 3204 3204 3204 3204 3204 3203 3203 3202 3201 3200
3172 3172 3174 3176 3179 3181 3182 3182 3183 3185 3185 3186 3187 3188 3189 3191 3191 3192 3193 3194 3195 3196 3196 3197 3198 3199 3199 3200 3200 3201 3201 3201 3201 3201 3200 3200 3200 3200 3200 3199 3197 3196
3169 3170 3172 3174 3176 3178 3178 3178 3178 3180 3180 3181 3183 3183 3185 3188 3188 3189 3189 3189 3190 3192 3193 3194 3195 3196 3196 3197 3197 3198 3198 3198 3198 3198 3197 3197 3197 3197 3197 3196 3194 3193
3167 3168 3169 3170 3171 3172 3172 3172 3173 3174 3175 3176 3177 3178 3180 3184 3186 3186 3186 3185 3186 3188 3190 3191 3192 3193 3193 3193 3194 3194 3194 3195 3195 3194 3194 3194 3194 3193 3193 3192 3191 3190